Location: Sungai Igah
(2.7333°N, 114.2500°E)
Time: 21:19:10
(UTC+00:00)

ATLAS 2AS CENTAUR R/B - Pass Details

Date: 28 October 2021
Orbit: 958 x 1254 km, 63.7° (Epoch: 27 November)

Event Time Altitude Azimuth Distance (km) Brightness Sun altitude
Rises 12:47:13 0° 196° (SSW) 4,040 6.1 -39.6°
Reaches altitude 10° 12:49:55 10° 193° (SSW) 3,113 5.4 -40.2°
Enters shadow 12:52:20 23° 188° (S) 2,326 4.6 -40.8°
